Погода в Русятине

Россия / Тульская область     54°42′09″N   37°32′01″E
темп.,
°C
ветер,
м/с
пор.,
м/с
влажн.,
%
обл.,
%
осадки,
мм/ч
давл.,
гПа
погр.,
м
9 мая, вс
вс900:00+8сз4898100 0.8 1002480
03:00+5сз61095100 1.1 1005689
06:00+4сз71297100 0.6 1007713
09:00+3сз71497100 2.5 1010793
12:00+4сз71296100 1.9 1013917
15:00+7сз71380100 2.8 10141500
18:00+8ссз5971100 0.4 10161287
21:00+5сз49825 0.5 1019144
10 мая, пн
пн1000:00+3сз410865 0.0 1021185
03:00+2ссз411870 0.0 1024197
06:00+2ссз310850 0.0 1026230
09:00+9с610520 0.0 10261175
12:00+11с68440 0.0 10261368
15:00+13ссв68450 0.0 10261570
18:00+12ссв5957100 0.0 1026765
21:00+6ссв397493 0.0 1027172
11 мая, вт
вт1100:00+6ссв4137510 0.0 1027288
03:00+4ссв4118319 0.0 1027220
06:00+6св513835 0.0 1027360
09:00+11св610725 0.0 1027507
12:00+16св79665 0.0 1025812
15:00+19всв79630 0.0 10241101
18:00+18всв6117367 0.5 1025703
21:00+12юв3895100 1.4 1026207
12 мая, ср
ср1200:00+9ююв34950 0.0 102888
03:00+7ююв22915 0.0 102712
06:00+9св1188100 0.0 102719
09:00+9зсз2393100 0.5 1025120
12:00+9з3498100 2.8 1022148
15:00+13в81491100 3.6 1019948
18:00+11юв8139347 2.8 1019851
21:00+6юв39951 2.8 1022276
13 мая, чт
чт1300:00+5в3796100 0.0 1022120
03:00+7в51294100 0.0 1021269
06:00+8вюв41292100 0.0 1020349
09:00+13ююв4887100 0.1 1019502
12:00+17ююв68707 0.6 10191144
15:00+18ю366771 0.8 10181394
18:00+17ююв35732 0.2 1018516
21:00+13юв34882 0.3 101949